Погода в Кромере

Великобритания     52°55′47″N   1°18′13″E
темп.,
°C
ветер,
м/с
пор.,
м/с
влажн.,
%
обл.,
%
осадки,
мм/ч
давл.,
гПа
погр.,
м
20 июня, вс
вс2001:00+12св101288100 1.4 1010725
04:00+12св7890100 1.6 1009635
07:00+12св5693100 5.7 1009404
10:00+12св5592100 1.1 1010386
13:00+12св7792100 3.2 1010452
16:00+13св7890100 0.3 1010542
19:00+13всв8887100 0.4 1011535
22:00+13св788496 0.0 1012620
21 июня, пн
пн2101:00+13св788298 0.1 1012656
04:00+13св8878100 0.0 1012746
07:00+13св887797 0.0 1013869
10:00+13св8977100 0.0 1014882
13:00+13св81082100 0.1 1015870
16:00+13ссв8982100 0.1 1016741
19:00+13св81085100 0.7 1017815
22:00+13св71084100 1.1 1018798
22 июня, вт
вт2201:00+13св91085100 1.4 1019803
04:00+13ссв91075100 0.2 1019872
07:00+13ссв897297 0.2 1020958
10:00+13ссв897290 0.0 10211036
13:00+13с787297 0.1 1021815
16:00+13с887254 0.1 1021766
19:00+13с77705 0.1 1022771
22:00+13с56694 0.0 1023741
23 июня, ср
ср2301:00+13с456994 0.0 1023655
04:00+12с457280 0.0 1023601
07:00+12с457286 0.0 1023551
10:00+12ссв34714 0.0 1024457
13:00+13ссв33701 0.0 1024343
16:00+13св336890 0.0 1024268
19:00+14в2263100 0.0 1024231
22:00+13юв3369100 0.0 1024133
24 июня, чт
чт2401:00+12ю3372100 0.0 102497
04:00+11юз3363100 0.0 1023111
07:00+12ююз3365100 0.0 1023119
10:00+15ююз227412 0.0 1022108
13:00+16с227259 0.0 1022177
16:00+15в327630 0.1 1021173
19:00+16з478542 0.4 1020221
22:00+15зсз81090100 0.0 1020360